Location: Ariel
(45.9570°N, 122.5700°W)
Time: 09:26:25
(UTC-07:00)

Vanguard 2 Rocket - All Passes

Search period start: 16 July 2019 00:00
Search period end: 26 July 2019 00:00
Orbit: 554 x 3326 km, 32.9° (Epoch: 15 July)

Date Brightness Start Highest point End Pass type
(mag) Time Alt. Az. Time Alt. Az. Time Alt. Az.
16 Jul - 15:56:28 10° SSW 15:59:45 16° S 16:02:28 10° SE daylight
16 Jul - 18:09:44 10° SW 18:11:48 13° S 18:13:45 10° SSE daylight
17 Jul - 14:56:39 10° SSW 15:00:34 16° S 15:03:40 10° SE daylight
17 Jul - 17:09:49 10° SW 17:12:48 16° S 17:15:24 10° SSE daylight
18 Jul - 13:56:46 10° SSW 14:01:13 15° SSE 14:04:42 10° SE daylight
18 Jul - 16:09:45 10° SW 16:13:46 19° S 16:16:57 10° SE daylight
18 Jul - 18:24:40 10° SSW 18:25:41 11° SSW 18:26:40 10° S daylight
19 Jul - 12:57:02 10° SSW 13:01:41 14° SSE 13:05:23 10° SE daylight
19 Jul - 15:09:29 10° SW 15:14:37 21° S 15:18:24 10° SE daylight
19 Jul - 17:23:54 10° SW 17:26:43 15° SSW 17:29:11 10° SSE daylight
20 Jul - 11:57:48 10° S 12:01:57 13° SSE 12:05:25 10° SE daylight
20 Jul - 14:09:03 10° SW 14:15:18 21° S 14:19:43 10° SE daylight
20 Jul - 16:23:27 10° SW 16:27:44 20° S 16:31:03 10° SE daylight
21 Jul - 11:00:26 10° SSE 11:02:00 10° SSE 11:03:29 10° SE daylight
21 Jul - 13:08:32 10° SSW 13:15:46 21° SSE 13:20:51 10° ESE daylight
21 Jul - 15:22:51 10° SW 15:28:38 24° S 15:32:43 10° SE daylight
21 Jul - 17:38:30 10° SW 17:40:32 12° SSW 17:42:23 10° S daylight
22 Jul - 12:08:08 10° SSW 12:16:01 20° SSE 12:21:40 10° ESE daylight
22 Jul - 14:22:02 10° SW 14:29:20 26° S 14:34:13 10° SE daylight
22 Jul - 16:37:27 10° WSW 16:41:37 18° SSW 16:44:51 10° SSE daylight
23 Jul - 11:08:06 10° SSW 11:16:02 18° SSE 11:22:00 10° ESE daylight
23 Jul - 13:21:03 10° SW 13:29:49 27° S 13:35:32 10° ESE daylight
23 Jul - 15:36:31 10° WSW 15:42:34 24° SSW 15:46:46 10° SE daylight
24 Jul - 10:08:50 10° S 10:15:49 15° SSE 10:21:29 10° ESE daylight
24 Jul - 12:20:02 10° SW 12:30:03 27° SSE 12:36:38 10° ESE daylight
24 Jul - 14:35:25 10° WSW 14:43:19 29° S 14:48:27 10° SE daylight
24 Jul - 16:51:49 10° WSW 16:55:21 15° SSW 16:58:13 10° S daylight
25 Jul - 09:11:40 10° SSE 09:15:28 11° SSE 09:18:55 10° SE daylight
25 Jul - 11:19:10 10° SSW 11:30:01 25° SSE 11:37:25 10° ESE daylight
25 Jul - 13:34:05 10° WSW 13:43:49 32° S 13:49:54 10° ESE daylight
25 Jul - 15:50:27 10° WSW 15:56:23 23° SSW 16:00:35 10° SSE daylight
